DECAYED

STARLINK-31915, 59796 (Decayed)

Orbit data source: Space-Track

STARLINK-31915, 59796 was a payload satellite owned by SpaceX/Seattle (US) in LEO that was launched on Sat, 18 May 2024 UTC via an FALCON 9 launch vehicle from the Air Force Eastern Test Range (AFETR). Payload-class satellites include a variety of spacecraft equipped with specific instruments for various scientific and technological missions. These include communications satellites like Starlink; space stations such as the ISS; scientific satellites like the Hubble; Earth observation satellites from companies like Planet Labs, Umbra, and HawkEye 360; GPS; miniature CubeSats for education and research; and military/defense satellites.

Not visible in the next 10 days
Identifier
59796, 2024-093Q
Orbit
Decayed
Last TLE update
1 year ago
Origin
Manufacturer
SpaceX/Seattle
Mission
Decayed spacecraft
Bus & Motor
STARLINK V2M, Unknown motor
Mass
730 kg wet, ~700 kg dry
Launch date (UTC)
2024-05-18 (1 year ago)
Launch vehicle
FALCON 9
Launch site
Air Force Eastern Test Range (AFETR)
Object type
Payload
Rocket body
Debris
Shape & HBR
Unknown
Radar Cross Section
Large (>1 m²)

Expand to show TLE details & history

TLE from 1 year ago
0 STARLINK-31915
1 59796U 24093Q   24155.76002328  .26324036  92744-5  35200-2 0  9998
2 59796  42.9880 275.4664 0006477 337.3134 139.2662 16.34370322  3868
Epoch: 2024-06-03T18:14Z
TLE epoch observation values (Epoch: 2024-06-03T18:14:26.011Z)
Latitude
37.70356°
Longitude
-126.3726°
Altitude
185.964 km
Speed
7.799 km/s
True Right ascension
02h 39m 42s
True Declination
37° 31' 22"
Sunlit
Object was in daylight at epoch
Visualization orbit readout
Visualization observer readout
Orbital elements
Apogee altitude
187.107 km
Perigee altitude
178.608 km
Semi-major axis
6,560.995 km
Eccentricity
0.00065
Inclination
42.988°
RAAN
275.4664°
Arg. of periapsis
337.3134°
True anomaly
139.3146°
Mean anomaly
139.2662°
Eccentric anomaly
139.2904°
Mean motion
4.08403 °/min
Orbital period
88.15 mins
BSTAR
0.00352
Loading maneuver chart data...
Loading SW <> Apogee altitude chart data...
Loading historical data...
Loading historical data...
Loading historical data...
Loading historical data...
Loading historical data...
Loading historical data...
Loading historical data...
|